Date String (YYYY-MM-DD hh:mm:ss) UTC,Instrument flags,Ambient pressure (hPa),Sample flow (lpm),Bypass flow (lpm),Sample temperature (°C),Ambient temperature (°C),ASC tube jacket temperature (°C),LED temperature (°C),Box temperature (°C),Sample RH (%),Span deviation,Mass concentration (μg/m³),Mass concentration (μg/m³),Mass concentration (μg/m³)
DateTimeUTC,F1_M11,P_M11,Q1_M11,Q2_M11,T1_M11,T2_M11,T3_M11,T4_M11,T5_M11,U1_M11,ZSPAN_M11,X2_M11,X0_M11,X1_M11
2022-07-04 06:00:00,,0823.8,5.00,0.00,29.6,28.3,00.0,38.4,31.5,23.5,0000.0,0003.19,0005.41,0002.54
2022-07-04 06:01:00,,0823.8,4.99,0.00,29.6,28.4,00.0,38.4,31.5,23.5,0000.0,0003.19,0005.42,0002.54
2022-07-04 06:02:00,,0823.8,4.99,0.00,29.6,28.5,00.0,38.4,31.5,23.4,0000.0,0003.17,0005.35,0002.53
2022-07-04 06:03:00,,0823.8,5.00,0.00,29.7,28.5,00.0,38.4,31.6,23.5,0000.0,0003.15,0005.28,0002.51
2022-07-04 06:04:00,,0823.8,5.00,0.00,29.7,28.6,00.0,38.4,31.6,23.5,0000.0,0003.14,0005.31,0002.49
2022-07-04 06:05:00,,0823.8,5.00,0.00,29.7,28.6,00.0,38.5,31.6,23.5,0000.0,0003.10,0005.25,0002.47
2022-07-04 06:06:00,,0823.8,5.00,0.00,29.7,28.7,00.0,38.5,31.7,23.4,0000.0,0003.04,0004.96,0002.45
2022-07-04 06:07:00,,0823.8,4.99,0.00,29.8,28.7,00.0,38.5,31.7,23.4,0000.0,0003.04,0005.69,0002.43
2022-07-04 06:08:00,,0823.8,5.01,0.00,29.8,28.8,00.0,38.5,31.7,23.4,0000.0,0003.01,0006.58,0002.40
2022-07-04 06:09:00,,0823.9,5.01,0.00,29.8,28.8,00.0,38.5,31.8,23.3,0000.0,0003.00,0006.50,0002.40
2022-07-04 06:10:00,,0823.9,5.00,0.00,29.8,28.9,00.0,38.5,31.7,23.2,0000.0,0002.96,0006.63,0002.39
2022-07-04 06:11:00,,0823.8,5.00,0.00,29.9,28.7,00.0,38.5,31.7,23.0,0000.0,0002.96,0006.53,0002.37
2022-07-04 06:12:00,,0823.8,4.99,0.00,29.8,28.0,00.0,38.5,31.7,22.9,0000.0,0003.00,0006.60,0002.36
2022-07-04 06:13:00,,0823.8,4.99,0.00,29.8,27.5,00.0,38.5,31.6,22.9,0000.0,0003.04,0006.73,0002.34
2022-07-04 06:14:00,,0823.8,5.00,0.00,29.7,27.4,00.0,38.5,31.4,23.0,0000.0,0003.07,0006.82,0002.33
2022-07-04 06:15:00,,0823.8,5.00,0.00,29.6,27.5,00.0,38.4,31.4,23.0,0000.0,0003.09,0006.87,0002.32
2022-07-04 06:16:00,,0823.8,5.01,0.00,29.6,27.6,00.0,38.4,31.3,23.1,0000.0,0003.12,0006.99,0002.31
2022-07-04 06:17:00,,0823.8,5.00,0.00,29.6,27.7,00.0,38.4,31.3,22.8,0000.0,0003.14,0007.03,0002.30
2022-07-04 06:18:00,,0823.8,4.99,0.00,29.6,27.9,00.0,38.4,31.4,22.6,0000.0,0003.11,0006.73,0002.28
2022-07-04 06:19:00,,0823.8,5.00,0.00,29.6,28.0,00.0,38.4,31.4,22.6,0000.0,0003.11,0005.25,0002.25
2022-07-04 06:20:00,,0823.8,5.00,0.00,29.6,28.1,00.0,38.4,31.4,22.5,0000.0,0003.07,0005.26,0002.22
2022-07-04 06:21:00,,0823.8,5.00,0.00,29.6,28.2,00.0,38.4,31.5,22.6,0000.0,0003.00,0004.96,0002.18
2022-07-04 06:22:00,,0823.7,5.00,0.00,29.6,28.3,00.0,38.4,31.5,22.7,0000.0,0002.92,0004.84,0002.17
2022-07-04 06:23:00,,0823.7,5.00,0.00,29.6,28.4,00.0,38.4,31.5,22.8,0000.0,0002.91,0004.89,0002.15
2022-07-04 06:24:00,,0823.7,5.01,0.00,29.6,28.4,00.0,38.4,31.5,22.7,0000.0,0002.87,0004.78,0002.15
2022-07-04 06:25:00,,0823.7,4.99,0.00,29.7,28.5,00.0,38.4,31.6,22.6,0000.0,0002.82,0004.70,0002.13
2022-07-04 06:26:00,,0823.7,4.99,0.00,29.7,28.6,00.0,38.4,31.6,22.3,0000.0,0002.79,0004.81,0002.11
2022-07-04 06:27:00,,0823.7,5.00,0.00,29.7,28.6,00.0,38.5,31.6,22.3,0000.0,0002.80,0005.11,0002.10
2022-07-04 06:28:00,,0823.7,5.00,0.00,29.7,28.7,00.0,38.5,31.7,22.3,0000.0,0002.78,0005.15,0002.08
2022-07-04 06:29:00,,0823.7,5.02,0.00,29.8,28.7,00.0,38.5,31.7,22.2,0000.0,0002.75,0005.07,0002.06
2022-07-04 06:30:00,,0823.7,5.01,0.00,29.8,28.8,00.0,38.5,31.7,22.2,0000.0,0002.71,0004.93,0002.06
2022-07-04 06:31:00,,0823.7,5.00,0.00,29.8,28.8,00.0,38.5,31.7,22.2,0000.0,0002.72,0004.94,0002.06
2022-07-04 06:32:00,,0823.7,5.01,0.00,29.8,28.8,00.0,38.5,31.8,22.2,0000.0,0002.75,0005.05,0002.06
2022-07-04 06:33:00,,0823.7,4.99,0.00,29.9,28.9,00.0,38.5,31.8,22.2,0000.0,0002.80,0004.86,0002.04
2022-07-04 06:34:00,,0823.7,5.00,0.00,29.9,28.9,00.0,38.6,31.8,22.1,0000.0,0002.75,0004.75,0002.01
2022-07-04 06:35:00,,0823.7,5.01,0.00,29.9,28.3,00.0,38.5,31.7,22.1,0000.0,0002.72,0004.80,0001.98
2022-07-04 06:36:00,,0823.7,5.01,0.00,29.9,27.6,00.0,38.5,31.6,22.1,0000.0,0002.73,0004.86,0001.97
2022-07-04 06:37:00,,0823.7,5.00,0.00,29.8,27.4,00.0,38.5,31.5,22.2,0000.0,0002.74,0004.76,0001.96
2022-07-04 06:38:00,,0823.7,4.99,0.00,29.7,27.4,00.0,38.5,31.4,22.6,0000.0,0002.72,0004.53,0001.95
2022-07-04 06:39:00,,0823.7,5.00,0.00,29.7,27.5,00.0,38.5,31.4,22.8,0000.0,0002.75,0004.62,0001.94
2022-07-04 06:40:00,,0823.6,5.00,0.00,29.6,27.7,00.0,38.4,31.4,22.8,0000.0,0002.79,0004.82,0001.93
2022-07-04 06:41:00,,0823.7,5.00,0.00,29.6,27.8,00.0,38.4,31.4,22.8,0000.0,0002.80,0004.96,0001.92
2022-07-04 06:42:00,,0823.7,5.00,0.00,29.6,27.9,00.0,38.4,31.4,22.7,0000.0,0002.76,0005.36,0001.90
2022-07-04 06:43:00,,0823.6,5.00,0.00,29.6,28.1,00.0,38.4,31.4,22.5,0000.0,0002.71,0006.00,0001.89
2022-07-04 06:44:00,,0823.7,5.00,0.00,29.6,28.2,00.0,38.4,31.5,22.5,0000.0,0002.72,0006.80,0001.89
2022-07-04 06:45:00,,0823.7,5.00,0.00,29.6,28.3,00.0,38.4,31.5,22.8,0000.0,0002.71,0006.72,0001.89
2022-07-04 06:46:00,,0823.7,5.01,0.00,29.7,28.4,00.0,38.4,31.5,22.9,0000.0,0002.68,0006.62,0001.90
2022-07-04 06:47:00,,0823.7,5.00,0.00,29.7,28.4,00.0,38.4,31.6,22.8,0000.0,0002.68,0006.58,0001.90
2022-07-04 06:48:00,,0823.7,5.00,0.00,29.7,28.5,00.0,38.5,31.6,22.6,0000.0,0002.66,0006.49,0001.91
2022-07-04 06:49:00,,0823.7,4.99,0.00,29.7,28.6,00.0,38.5,31.6,22.6,0000.0,0002.67,0006.54,0001.91
2022-07-04 06:50:00,,0823.7,4.99,0.00,29.7,28.6,00.0,38.5,31.6,22.7,0000.0,0002.68,0007.15,0001.95
2022-07-04 06:51:00,,0823.7,5.00,0.00,29.8,28.7,00.0,38.5,31.7,22.8,0000.0,0002.68,0007.20,0001.96
2022-07-04 06:52:00,,0823.7,5.00,0.00,29.8,28.8,00.0,38.5,31.7,22.9,0000.0,0002.69,0007.27,0001.98
2022-07-04 06:53:00,,0823.7,5.01,0.00,29.8,28.8,00.0,38.5,31.7,23.0,0000.0,0002.70,0006.94,0002.00
2022-07-04 06:54:00,,0823.7,5.00,0.00,29.8,28.8,00.0,38.5,31.8,23.0,0000.0,0002.76,0006.20,0002.03
2022-07-04 06:55:00,,0823.7,5.01,0.00,29.9,28.9,00.0,38.6,31.7,23.1,0000.0,0002.73,0005.38,0002.06
2022-07-04 06:56:00,,0823.7,5.00,0.00,29.9,28.9,00.0,38.6,31.8,23.1,0000.0,0002.75,0005.37,0002.09
2022-07-04 06:57:00,,0823.7,4.99,0.00,29.9,29.0,00.0,38.6,31.8,22.8,0000.0,0002.81,0005.45,0002.12
2022-07-04 06:58:00,,0823.7,5.00,0.00,29.9,28.8,00.0,38.6,31.9,22.7,0000.0,0002.78,0005.35,0002.13
2022-07-04 06:59:00,,0823.7,5.01,0.00,29.9,28.0,00.0,38.6,31.7,22.5,0000.0,0002.79,0005.35,0002.15
